Weather History for Covington, KY

Change the Weather History Date:

Wednesday, December 18, 2013

  Actual Average Record
Temperature  
Mean Temperature -1 °C 1 °C  
Max Temperature 3 °C 5 °C 19 °C (1877)
Min Temperature -4 °C -3 °C -19 °C (1989)
Degree Days  
Heating Degree Days 34 32  
Month to date heating degree days 573 529  
Since 1 July heating degree days 1609 1489  
Cooling Degree Days 0 0  
Month to date cooling degree days 0 0  
Year to date cooling degree days 1150 1121  
Moisture  
Dew Point -7 °C    
Average Humidity 66    
Maximum Humidity 92    
Minimum Humidity 40    
Precipitation  
Precipitation 0.00 mm 2.54 mm 5.18 mm (1990)
Month to date precipitation 2.33 1.95  
Year to date precipitation 46.90 41.10  
Snow  
Snow 0.00 cm 0.25 cm 9.65 cm (1951)
Month to date snowfall 10.1 2.3  
Since 1 July snowfall 12.5 3.1  
Snow Depth T cm    
Sea Level Pressure  
Sea Level Pressure 1023 hPa    
Wind  
Wind Speed 14 km/h (SW)    
Max Wind Speed 29 km/h    
Max Gust Speed 39 km/h    
Visibility 15 kilometers    
Events      
T = Trace of Precipitation, MM = Missing Value Source: NWS Daily Summary

Daily Weather History Graph

Daily Weather History Graph

Search for Another Location

Airport:

Trip Planner

Search our weather history database for the weather conditions in past years. The results will help you decide how hot, cold, wet, or windy it might be!

Date:

Astronomy

Dec. 18, 2013 Rise Set
Actual Time 7:52 AM EST 5:18 PM EST
Civil Twilight 7:22 AM EST 5:48 PM EST
Nautical Twilight 6:48 AM EST 6:22 PM EST
Astronomical Twilight 6:16 AM EST 6:54 PM EST
Moon 6:48 PM EST (12/18) 8:32 AM EST (12/18)
Length of Visible Light 10h 25m
Length of Day
9h 25m
Full, 98% of the Moon is Illuminated
Dec 18
Full
Dec 25
Last Quarter
Jan 1
New
Jan 7
First Quarter
Jan 15
Full

Hourly Weather History & Observations

Time (EST) Temp. Windchill Dew Point Humidity Pressure Visibility Wind Dir Wind Speed Gust Speed Precip Events Conditions
12:52 AM -2.2 °C -6.7 °C -4.4 °C 85% 1022.0 hPa 9.7 km SW 13.0 km/h / 3.6 m/s - N/A   Scattered Clouds
1:52 AM -2.2 °C -5.7 °C -4.4 °C 85% 1021.9 hPa 9.7 km SW 9.3 km/h / 2.6 m/s - N/A   Clear
2:52 AM -2.8 °C -5.8 °C -4.4 °C 89% 1022.2 hPa 11.3 km WSW 7.4 km/h / 2.1 m/s - N/A   Clear
3:52 AM -2.8 °C -8.2 °C -5.6 °C 81% 1022.5 hPa 12.9 km West 16.7 km/h / 4.6 m/s - N/A   Clear
4:52 AM -3.3 °C -7.0 °C -6.1 °C 81% 1022.3 hPa 14.5 km WSW 9.3 km/h / 2.6 m/s - N/A   Clear
5:52 AM -3.9 °C -9.2 °C -6.7 °C 81% 1023.3 hPa 16.1 km West 14.8 km/h / 4.1 m/s - N/A   Partly Cloudy
6:27 AM -3.0 °C -9.3 °C -7.0 °C 74% 1022.6 hPa 16.1 km West 22.2 km/h / 6.2 m/s 27.8 km/h / 7.7 m/s N/A   Mostly Cloudy
6:52 AM -3.9 °C -8.7 °C -7.2 °C 78% 1023.7 hPa 16.1 km West 13.0 km/h / 3.6 m/s - N/A   Mostly Cloudy
7:46 AM -4.0 °C -8.9 °C -7.0 °C 80% 1023.2 hPa 14.5 km WSW 13.0 km/h / 3.6 m/s - N/A   Scattered Clouds
7:52 AM -4.4 °C -8.3 °C -6.7 °C 84% 1024.1 hPa 12.9 km WSW 9.3 km/h / 2.6 m/s - N/A   Partly Cloudy
8:52 AM -3.9 °C -8.7 °C -7.8 °C 75% 1024.8 hPa 16.1 km West 13.0 km/h / 3.6 m/s - N/A   Clear
9:18 AM -3.0 °C -9.1 °C -8.0 °C 69% 1023.9 hPa 16.1 km West 20.4 km/h / 5.7 m/s - N/A   Partly Cloudy
9:52 AM -2.8 °C -8.2 °C -7.8 °C 69% 1025.1 hPa 16.1 km West 16.7 km/h / 4.6 m/s - N/A   Clear
10:52 AM -2.2 °C -8.3 °C -8.3 °C 63% 1025.5 hPa 16.1 km West 22.2 km/h / 6.2 m/s - N/A   Clear
11:52 AM -0.6 °C -4.3 °C -8.3 °C 57% 1025.3 hPa 16.1 km WSW 11.1 km/h / 3.1 m/s - N/A   Clear
12:52 PM 0.6 °C -3.3 °C -8.3 °C 52% 1024.9 hPa 16.1 km West 13.0 km/h / 3.6 m/s - N/A   Clear
1:52 PM 1.7 °C -1.9 °C -8.9 °C 46% 1024.4 hPa 16.1 km West 13.0 km/h / 3.6 m/s - N/A   Clear
2:52 PM 2.8 °C 0.2 °C -9.4 °C 41% 1023.8 hPa 16.1 km WSW 9.3 km/h / 2.6 m/s - N/A   Partly Cloudy
3:52 PM 2.8 °C -0.2 °C -9.4 °C 41% 1023.5 hPa 16.1 km SW 11.1 km/h / 3.1 m/s - N/A   Partly Cloudy
4:52 PM 1.7 °C -2.3 °C -8.3 °C 48% 1022.6 hPa 16.1 km South 14.8 km/h / 4.1 m/s - N/A   Partly Cloudy
5:52 PM 0.6 °C -3.3 °C -7.2 °C 56% 1022.1 hPa 16.1 km South 13.0 km/h / 3.6 m/s - N/A   Partly Cloudy
6:52 PM 0.6 °C -3.3 °C -7.8 °C 54% 1021.3 hPa 16.1 km South 13.0 km/h / 3.6 m/s - N/A   Clear
7:52 PM 0.6 °C -3.9 °C -7.2 °C 56% 1020.6 hPa 16.1 km South 16.7 km/h / 4.6 m/s - N/A   Partly Cloudy
8:52 PM 1.7 °C -3.6 °C -8.3 °C 48% 1019.8 hPa 16.1 km South 24.1 km/h / 6.7 m/s - N/A   Partly Cloudy
9:52 PM 2.2 °C -3.0 °C -7.8 °C 48% 1018.9 hPa 16.1 km South 24.1 km/h / 6.7 m/s - N/A   Scattered Clouds
10:52 PM 1.7 °C -2.6 °C -7.2 °C 52% 1018.5 hPa 16.1 km SSW 16.7 km/h / 4.6 m/s - N/A   Clear
11:52 PM 2.2 °C -2.0 °C -7.2 °C 50% 1018.1 hPa 16.1 km South 16.7 km/h / 4.6 m/s - N/A   Partly Cloudy